Location: Newark
(52.4787°S, 179.0532°W)
Time: 18:53:08
(UTC+00:00)

ISS - Pass Details

Date: 23 October 2019
Orbit: 412 x 421 km, 51.6° (Epoch: 23 November)

Event Time Altitude Azimuth Distance (km) Brightness Sun altitude
Rises 07:50:54 0° 299° (WNW) 2,367 0.5 -9.5°
Reaches altitude 10° 07:53:01 10° 305° (NW) 1,508 -0.6 -9.8°
Maximum altitude 07:56:18 48° 20° (NNE) 561 -3.5 -10.2°
Enters shadow 07:59:34 10° 95° (E) 1,505 -1.4 -10.6°
